Edinburg, TX

5:15 AM CDT on September 20, 2017 (GMT -0500)
Edinburg

Weather History for KEBG - March, 2013

Change the Weather History Date:

Sunday, March 3, 2013

  Actual Average (KMFE) Record (KMFE)
Temperature  
Mean Temperature 61 °F -  
Max Temperature 81 °F 75 °F 98 °F (2016)
Min Temperature 41 °F 56 °F 34 °F (1980)
Degree Days  
Heating Degree Days 4    
Growing Degree Days 11 (Base 50)    
Moisture  
Dew Point 35 °F    
Average Humidity 48    
Maximum Humidity 75    
Minimum Humidity 15    
Precipitation  
Precipitation 0.00 in - - ()
Sea Level Pressure  
Sea Level Pressure 30.25 in    
Wind  
Wind Speed 4 mph (South)    
Max Wind Speed 18 mph    
Max Gust Speed 24 mph    
Visibility 6 miles    
Events      
Averages and records for this station are not official NWS values.
T = Trace of Precipitation, MM = Missing Value Source: NWS Daily Summary

Daily Weather History Graph

Daily Weather History Graph

Search for Another Location

Airport or City:

Trip Planner

Search our weather history database for the weather conditions in past years. The results will help you decide how hot, cold, wet, or windy it might be!

Date:

Astronomy

Mar. 03, 2013 Rise Set
Actual Time 6:53 AM CST 6:35 PM CST
Civil Twilight 6:30 AM CST 6:58 PM CST
Nautical Twilight 6:03 AM CST 7:25 PM CST
Astronomical Twilight 5:37 AM CST 7:52 PM CST
Moon No Moon Rise 10:47 AM CST (3/3)
Length of Visible Light 12h 27m
Length of Day
11h 41m
Waning Gibbous, 63% of the Moon is Illuminated
Mar 3
Waning Gibbous
Mar 4
Last Quarter
Mar 11
New
Mar 19
First Quarter
Mar 27
Full

Hourly Weather History & Observations

Time (CST) Temp. Dew Point Humidity Pressure Visibility Wind Dir Wind Speed Gust Speed Precip Events Conditions
12:15 AM 50.0 °F 34.7 °F 56% 30.32 in 7.0 mi Calm Calm - N/A   Clear
12:35 AM 49.6 °F 34.3 °F 56% 30.32 in 7.0 mi Calm Calm - N/A   Clear
12:55 AM 49.1 °F 35.6 °F 60% 30.32 in 7.0 mi Calm Calm - N/A   Clear
1:35 AM 48.2 °F 35.4 °F 61% 30.31 in 5.0 mi Calm Calm - N/A   Haze
1:55 AM 48.6 °F 35.4 °F 60% 30.31 in 7.0 mi SSW 5.8 mph - N/A   Clear
2:15 AM 48.2 °F 35.2 °F 61% 30.30 in 7.0 mi SSW 3.5 mph - N/A   Clear
2:35 AM 48.2 °F 36.0 °F 63% 30.29 in 7.0 mi Calm Calm - N/A   Clear
2:55 AM 47.8 °F 36.5 °F 65% 30.29 in 7.0 mi Calm Calm - N/A   Clear
3:15 AM 47.3 °F 35.8 °F 64% 30.28 in 7.0 mi Calm Calm - N/A   Clear
3:35 AM 46.4 °F 35.1 °F 65% 30.28 in 7.0 mi Calm Calm - N/A   Clear
3:55 AM 45.3 °F 34.3 °F 65% 30.27 in 10.0 mi Calm Calm - N/A   Clear
4:15 AM 44.8 °F 34.3 °F 67% 30.27 in 7.0 mi Calm Calm - N/A   Clear
4:35 AM 45.7 °F 35.6 °F 68% 30.27 in 7.0 mi Calm Calm - N/A   Clear
4:55 AM 44.1 °F 33.6 °F 67% 30.27 in 7.0 mi Calm Calm - N/A   Clear
5:15 AM 43.7 °F 32.5 °F 65% 30.27 in 7.0 mi Calm Calm - N/A   Clear
5:35 AM 43.2 °F 32.9 °F 67% 30.27 in 7.0 mi Calm Calm - N/A   Clear
5:55 AM 43.2 °F 32.9 °F 67% 30.27 in 7.0 mi Calm Calm - N/A   Clear
6:15 AM 42.4 °F 32.2 °F 67% 30.27 in 7.0 mi Calm Calm - N/A   Clear
6:55 AM 41.0 °F 32.0 °F 70% 30.28 in 7.0 mi Calm Calm - N/A   Clear
7:15 AM 41.2 °F 33.8 °F 75% 30.28 in 5.0 mi Calm Calm - N/A   Haze
7:35 AM 43.2 °F 33.4 °F 69% 30.29 in 4.0 mi Calm Calm - N/A   Haze
7:55 AM 46.0 °F 37.9 °F 73% 30.29 in 5.0 mi Calm Calm - N/A   Haze
8:15 AM 54.1 °F 42.1 °F 64% 30.29 in 5.0 mi South 6.9 mph - N/A   Haze
8:35 AM 58.5 °F 42.4 °F 55% 30.29 in 7.0 mi South 4.6 mph - N/A   Clear
8:55 AM 62.4 °F 42.1 °F 47% 30.30 in 7.0 mi South 10.4 mph - N/A   Clear
9:15 AM 64.8 °F 41.9 °F 43% 30.30 in 5.0 mi South 9.2 mph - N/A   Haze
9:35 AM 66.6 °F 41.4 °F 40% 30.29 in 7.0 mi SSE 12.7 mph - N/A   Clear
9:55 AM 67.1 °F 39.7 °F 37% 30.29 in 5.0 mi SSE 13.8 mph - N/A   Haze
10:15 AM 68.4 °F 39.4 °F 35% 30.28 in 7.0 mi South 15.0 mph 19.6 mph N/A   Clear
10:35 AM 70.0 °F 39.2 °F 33% 30.28 in 5.0 mi South 10.4 mph - N/A   Haze
10:55 AM 72.0 °F 37.8 °F 29% 30.27 in 5.0 mi South 13.8 mph 21.9 mph N/A   Haze
11:15 AM 72.7 °F 37.2 °F 27% 30.25 in 5.0 mi South 13.8 mph 20.7 mph N/A   Haze
11:55 AM 75.2 °F 34.2 °F 22% 30.23 in 7.0 mi South 15.0 mph 21.9 mph N/A   Clear
12:35 PM 77.0 °F 33.8 °F 21% 30.20 in 5.0 mi South 16.1 mph 19.6 mph N/A   Haze
12:55 PM 77.4 °F 33.4 °F 20% 30.18 in 7.0 mi South 12.7 mph 20.7 mph N/A   Clear
1:15 PM 78.6 °F 29.5 °F 17% 30.17 in 7.0 mi South 15.0 mph 21.9 mph N/A   Clear
1:35 PM 79.2 °F 28.9 °F 16% 30.15 in 7.0 mi South 11.5 mph 24.2 mph N/A   Clear
1:55 PM 80.4 °F 30.7 °F 16% 30.13 in 7.0 mi South 16.1 mph 24.2 mph N/A   Clear
2:35 PM 81.0 °F 28.9 °F 15% 30.11 in 7.0 mi South 17.3 mph 23.0 mph N/A   Clear
3:35 PM 81.1 °F 32.7 °F 17% 30.09 in 7.0 mi South 12.7 mph 18.4 mph N/A   Clear
4:15 PM 79.9 °F 34.0 °F 19% 30.06 in 7.0 mi SE 18.4 mph - N/A   Clear
4:35 PM 79.7 °F 33.4 °F 19% 30.06 in 7.0 mi SSE 12.7 mph 23.0 mph N/A   Clear